Location: Unspecified
(0.0000°N, 0.0000°E)
Time: 19:46:58
(UTC+00:00)

Vanguard 2 - All Passes

Search period start: 19 November 2018 00:00
Search period end: 29 November 2018 00:00
Orbit: 553 x 2939 km, 32.9° (Epoch: 18 November)

Date Brightness Start Highest point End Pass type
(mag) Time Alt. Az. Time Alt. Az. Time Alt. Az.
19 Nov - 00:12:14 10° WSW 00:23:30 81° NW 00:40:41 10° NE visible
19 Nov - 02:24:04 10° W 02:37:07 36° NNW 02:52:48 10° NNE visible
19 Nov - 04:43:12 10° NW 04:53:43 18° NNW 05:03:50 10° NNE visible
19 Nov - 07:04:25 10° NNW 07:11:38 14° N 07:17:50 10° NNE daylight
19 Nov - 09:17:08 10° NNW 09:26:35 24° NNE 09:33:12 10° ENE daylight
19 Nov - 11:28:22 10° NW 11:37:48 73° NNE 11:43:24 10° ESE daylight
19 Nov - 13:42:25 10° WSW 13:45:59 16° SW 13:48:55 10° S daylight
19 Nov - 22:22:20 10° SSW 22:30:47 49° SE 22:44:21 10° ENE visible
20 Nov - 00:30:33 10° WSW 00:41:55 64° NNW 00:58:52 10° NE visible
20 Nov - 02:43:49 10° WNW 02:56:16 29° NNW 03:10:38 10° NNE visible
20 Nov - 05:04:20 10° NW 05:13:41 16° N 05:22:30 10° NNE visible
20 Nov - 07:22:47 10° NNW 07:31:22 16° N 07:38:24 10° NE daylight
20 Nov - 09:34:45 10° NW 09:45:28 33° NNE 09:52:26 10° E daylight
20 Nov - 11:46:41 10° WNW 11:55:52 73° SW 12:01:22 10° SE daylight
20 Nov - 20:35:19 10° S 20:39:23 15° SE 20:44:29 10° ESE visible
20 Nov - 22:39:58 10° SW 22:48:44 67° SE 23:03:20 10° ENE visible
21 Nov - 00:49:10 10° WSW 01:00:32 49° NNW 01:16:52 10° NE visible
21 Nov - 03:04:03 10° WNW 03:15:41 23° NNW 03:28:35 10° NNE visible
21 Nov - 05:24:58 10° NNW 05:33:47 15° N 05:41:54 10° NNE visible
21 Nov - 07:40:44 10° NNW 07:50:53 20° NNE 07:58:43 10° ENE daylight
21 Nov - 09:52:32 10° NW 10:04:09 45° NNE 10:11:15 10° E daylight
21 Nov - 12:05:23 10° WNW 12:13:46 45° SW 12:19:01 10° SSE daylight
21 Nov - 20:51:48 10° S 20:57:24 23° SE 21:05:20 10° E visible
21 Nov - 22:57:51 10° SW 23:06:51 88° SE 23:21:56 10° NE night (unlit)
22 Nov - 01:08:09 10° W 01:19:21 39° NNW 01:34:45 10° NE visible
22 Nov - 03:24:42 10° NW 03:35:23 20° NNW 03:46:46 10° NNE visible
22 Nov - 05:44:41 10° NNW 05:53:51 16° N 06:02:04 10° NE daylight
22 Nov - 07:58:31 10° NNW 08:10:10 26° NNE 08:18:35 10° ENE daylight
22 Nov - 10:10:31 10° NW 10:22:37 64° NNE 10:29:40 10° ESE daylight
22 Nov - 12:24:36 10° W 12:31:34 28° SW 12:36:20 10° SSE daylight
22 Nov - 21:08:52 10° SSW 21:15:16 34° SE 21:25:13 10° ENE visible
22 Nov - 23:15:58 10° WSW 23:25:07 70° NNW 23:40:15 10° NE night (unlit)
23 Nov - 01:27:32 10° W 01:38:24 30° NNW 01:52:37 10° NNE visible
23 Nov - 03:45:32 10° NW 03:55:19 17° N 04:05:24 10° NNE visible
23 Nov - 06:03:34 10° NNW 06:13:47 18° N 06:22:37 10° NE daylight
23 Nov - 08:16:17 10° NW 08:29:13 33° NNE 08:38:00 10° E daylight
23 Nov - 10:28:44 10° NW 10:40:50 89° NNE 10:47:48 10° SE daylight
23 Nov - 12:44:35 10° W 12:49:24 17° SW 12:53:07 10° S daylight
23 Nov - 21:26:17 10° SW 21:33:07 51° SE 21:44:29 10° ENE visible
23 Nov - 23:34:22 10° WSW 23:43:35 53° NNW 23:58:20 10° NE night (unlit)
24 Nov - 01:47:23 10° WNW 01:57:42 24° NNW 02:10:30 10° NNE visible
24 Nov - 04:06:07 10° NW 04:15:25 16° N 04:24:44 10° NNE visible
24 Nov - 06:21:52 10° NNW 06:33:30 21° NNE 06:43:05 10° ENE daylight
24 Nov - 08:34:07 10° NW 08:48:03 44° NNE 08:56:58 10° E daylight
24 Nov - 10:47:17 10° WNW 10:58:52 64° SW 11:05:39 10° SE daylight
24 Nov - 19:39:47 10° SSE 19:42:30 13° SE 19:45:42 10° ESE visible
24 Nov - 21:43:59 10° SW 21:51:03 74° SE 22:03:16 10° ENE visible
24 Nov - 23:53:06 10° W 00:02:17 40° NNW 00:16:15 10° NE night (unlit)
25 Nov - 02:07:39 10° NW 02:17:15 20° NNW 02:28:35 10° NNE visible
25 Nov - 04:26:01 10° NNW 04:35:33 16° N 04:44:52 10° NE visible
25 Nov - 06:39:51 10° NNW 06:52:57 26° NNE 07:03:12 10° ENE daylight
25 Nov - 08:52:04 10° NW 09:06:40 58° NNE 09:15:35 10° ESE daylight
25 Nov - 11:06:14 10° WNW 11:16:45 43° SW 11:23:14 10° SSE daylight
25 Nov - 19:55:59 10° S 20:00:24 21° SE 20:06:29 10° E visible
25 Nov - 22:01:55 10° WSW 22:09:09 80° NW 22:21:42 10° NE visible
26 Nov - 00:12:13 10° W 00:21:11 31° NNW 00:34:03 10° NNE visible
26 Nov - 02:28:13 10° NW 02:37:04 17° N 02:47:04 10° NNE visible
26 Nov - 04:45:07 10° NNW 04:55:37 18° N 05:05:33 10° NE visible
26 Nov - 06:57:43 10° NNW 07:12:09 33° NNE 07:22:53 10° E daylight
26 Nov - 09:10:13 10° NW 09:25:03 78° NE 09:33:53 10° ESE daylight
26 Nov - 11:25:42 10° W 11:34:35 29° SW 11:40:31 10° SSE daylight
26 Nov - 20:13:03 10° SSW 20:18:12 34° SE 20:26:06 10° ENE visible
26 Nov - 22:20:09 10° WSW 22:27:28 57° NNW 22:39:51 10° NE night (unlit)
27 Nov - 00:31:47 10° WNW 00:40:20 24° NNW 00:51:50 10° NNE visible
27 Nov - 02:48:43 10° NW 02:57:04 16° N 03:06:11 10° NNE visible
27 Nov - 05:03:35 10° NNW 05:15:28 21° NNE 05:26:19 10° ENE visible
27 Nov - 07:15:34 10° NW 07:31:07 42° NNE 07:42:06 10° E daylight
27 Nov - 09:28:37 10° WNW 09:43:15 80° SW 09:51:53 10° SE daylight
27 Nov - 11:45:54 10° W 11:52:29 19° SW 11:57:22 10° S daylight
27 Nov - 20:30:30 10° SW 20:36:01 55° SE 20:45:07 10° ENE visible
27 Nov - 22:38:42 10° W 22:46:01 41° NNW 22:57:45 10° NE night (unlit)
28 Nov - 00:51:49 10° NW 00:59:42 19° NNW 01:09:41 10° NNE visible
28 Nov - 03:08:40 10° NNW 03:17:10 15° N 03:26:13 10° NE visible
28 Nov - 05:21:41 10° NNW 05:35:03 25° NNE 05:46:48 10° ENE visible
28 Nov - 07:33:28 10° NW 07:49:53 54° NNE 08:00:55 10° ESE daylight
28 Nov - 09:47:21 10° WNW 10:01:16 59° SW 10:09:40 10° SE daylight
28 Nov - 12:07:32 10° WSW 12:10:33 12° SW 12:13:11 10° SSW daylight
28 Nov - 18:44:15 10° SSE 18:45:52 11° SE 18:47:37 10° ESE visible
28 Nov - 20:48:15 10° SW 20:53:59 86° SE 21:03:41 10° NE visible
28 Nov - 22:57:38 10° W 23:04:46 30° NNW 23:15:29 10° NNE night (unlit)
